Other Public Products
Issued by NWS Grand Forks, ND

Home | Current Version | Previous Version | Graphics & Text | Print | Product List | Glossary On
Versions: 1 2 3 4 5 6 7 8 9 10 11 12 13 14 15 16 17 18 19 20 21 22 23 24 25 26 27 28 29 30 31 32 33 34 35 36 37 38 39 40 41 42 43 44 45 46 47 48 49 50
000
FPUS83 KFGF 301331
OPUFGF
PRAIRIE TO PINES WEATHER ROUNDUP
NATIONAL WEATHER SERVICE EASTERN NORTH DAKOTA/GRAND FORKS ND
800 AM CDT THU JUL 30 2015

 **SATELLITE DATA USED TO AUGMENT SKY COVER AT AUTOMATED STATIONS**
 *****  WEATHER ACROSS EASTERN NORTH DAKOTA  *****

CITY           SKY/WX    TMP DP  RH WIND       PRES   REMARKS
GRAND FORKS    PTSUNNY   66  57  72 W12       29.99R
GRAND FORKS AF MOSUNNY   67  57  71 NW12      30.01R
GRAND CITY NWS   N/A     63 N/A N/A W9          N/A
BUXTON         NOT AVBL
DEVILS LAKE    MOSUNNY   66  54  63 W16       30.04S
FARGO          SUNNY     64  56  75 W13       30.03R
WAHPETON ARPT  SUNNY     63  54  72 W9        30.06S
$$

 *****  WEATHER ACROSS CENTRAL AND WESTERN NORTH DAKOTA  *****

CITY           SKY/WX    TMP DP  RH WIND       PRES   REMARKS
JAMESTOWN      SUNNY     63  54  72 NW10      30.10R
BISMARCK       SUNNY     62  50  64 W3        30.15R
MINOT          MOSUNNY   62  52  69 SW10      30.09R
MINOT AFB      MOSUNNY   63  59  87 W8        30.08R
GARRISON         N/A     54  52  93 W5        30.13R
WILLISTON      SUNNY     60  52  74 CALM      30.16R
DICKINSON      SUNNY     59  46  62 NW6       30.17R
HETTINGER      SUNNY     58  49  72 NW3       30.21R
$$

 *****  OTHER OBSERVATIONS NORTHEAST NORTH DAKOTA  *****

CITY           SKY/WX    TMP DP  RH WIND       PRES   REMARKS
WALHALLA       FAIR      64  59  82 MISG      29.97S
LANGDON        FAIR      63  55  77 W13       30.02S
CAVALIER       FAIR      66  55  68 W15       29.97R
GRAFTON        FAIR      66  57  72 W16       29.99R
CANDO          FAIR      63  55  77 W10       30.04F
FORT TOTTEN      N/A     63  56  79 NW6       29.95S
ROLLA          FAIR      64  54  68 W13G18    30.06R
RUGBY          NOT AVBL
 ***** THE ABOVE OBSERVATIONS ARE NON NWS ARE NOT QUALITY
        CONTROLLED AND MAY MIS-REPORT RAIN FOR SNOW...
$$

 *****  OTHER OBSERVATIONS SOUTHEAST NORTH DAKOTA *****

CITY           SKY/WX    TMP DP  RH WIND       PRES   REMARKS
COOPERSTOWN    NOT AVBL
VALLEY CITY    FAIR      64  55  72 NW16G24   30.09R
OAKES            N/A     64  57  77 W3        30.10S
GWINNER        FAIR      63  55  77 W9        30.09S
SHEYENNE NWR     N/A     64  56  74 W6        29.95S
BUFFALO        NOT AVBL
WYNDMERE       NOT AVBL
 ***** THE ABOVE OBSERVATIONS ARE NON NWS ARE NOT QUALITY
       CONTROLLED AND MAY MIS-REPORT RAIN FOR SNOW...
$$

  *****  WEATHER ACROSS NORTHERN MINNESOTA  *****

CITY           SKY/WX    TMP DP  RH WIND       PRES   REMARKS
FLAG ISLAND    MOSUNNY   63  55  77 W7        29.91R
WARROAD        PTSUNNY   61  55  82 SW3       29.94S
ROSEAU         PTSUNNY   63  57  82 W9        29.94R
HALLOCK        PTSUNNY   64  59  82 W8        29.96R
THF RVR FALLS  PTSUNNY   64  57  77 W12       29.99R
HALSTAD        NOT AVBL
FOSSTON        MOSUNNY   61  57  88 SW6       30.02R
BAUDETTE       CLOUDY    60  56  86 W5        29.92S
WASKISH        MOSUNNY   64  61  88 SW8       29.95F
CROOKSTON      MOSUNNY   64  59  82 W9        30.00S
$$
  *****  WEATHER ACROSS CENTRAL AND WEST MINNESOTA  *****

CITY           SKY/WX    TMP DP  RH WIND       PRES   REMARKS
BEMIDJI        SUNNY     65  57  76 W12       29.99S
PARK RAPIDS    SUNNY     65  57  75 W10       30.02R
WADENA         SUNNY     64  57  77 W8        30.03S
DETROIT LAKES  SUNNY     66  55  68 W9        30.05R
MOORHEAD       SUNNY     66  55  68 W7        30.04S
FERGUS FALLS   SUNNY     63  55  77 W8        30.06S
ELBOW LAKE     FAIR      62  56  81 W7        30.06S
MORRIS MN      SUNNY     68  57  68 W8        30.07S
STAPLES        SUNNY     64  55  72 W9        30.03S
WHEATON        SUNNY     66  55  68 W6        30.09R
$$
  *****  WEATHER ELSEWHERE ACROSS MINNESOTA  *****

CITY           SKY/WX    TMP DP  RH WIND       PRES   REMARKS
DULUTH         SUNNY     68  57  68 W12       29.94S
INTRNTL FALLS  MOSUNNY   62  57  83 W7        29.92R
ELY            SUNNY     63  54  72 NW9G20    29.92R
CLOQUET        SUNNY     68  55  64 W13       29.96S
BRAINERD       SUNNY     67  56  67 W10       30.01R
HIBBING        SUNNY     66  57  72 W8        29.95R
ALEXANDRIA     SUNNY     65  55  70 W13       30.08R
SAINT CLOUD    SUNNY     68  55  63 W9        30.03S
MINNEAPOLIS    SUNNY     69  55  60 W7        30.04S
$$

  *****  WEATHER ACROSS SOUTH DAKOTA  *****

CITY           SKY/WX    TMP DP  RH WIND       PRES   REMARKS
SIOUX FALLS    SUNNY     66  57  72 SW3       30.13S
BROOKINGS      SUNNY     64  55  72 CALM      30.16R
WATERTOWN      SUNNY     66  57  72 CALM      30.13S
HURON          SUNNY     63  56  78 NE5       30.13R
SISSETON         N/A     69  56  62 NW3       30.07S
ABERDEEN       SUNNY     64  57  78 SW3       30.11S
MITCHELL       SUNNY     65  60  84 CALM      30.13S
PIERRE         SUNNY     62  52  69 CALM      30.14R
MOBRIDGE       SUNNY     63  58  83 CALM      30.13S
RAPID CITY     SUNNY     61  46  57 NW8       30.24S
$$

  *****  SOME WEATHER IN NEARBY STATES *****

CITY           SKY/WX    TMP DP  RH WIND       PRES   REMARKS
GLASGOW MT     SUNNY     59  52  77 CALM      30.18R
GREAT FALLS MT CLEAR     54  45  71 S7        30.28R
CHEYENNE WY    SUNNY     58  45  62 W12       30.38R
SCOTTSBLUFF NE SUNNY     60  52  74 NE5       30.27R
OMAHA NE       SUNNY     68  62  81 CALM      30.19R
DES MOINES IA  SUNNY     70  58  65 W7        30.14S
DAVENPORT IA   SUNNY     67  62  84 W7        30.11S
CHICAGO IL     SUNNY     71  59  65 W8        30.05S
EAU CLAIRE WI  SUNNY     66  57  72 W12       30.01R
LA CROSSE WI   SUNNY     73  56  54 VRB3      30.04R
$$

  *****  SOME NATIONAL WEATHER *****

CITY           SKY/WX    TMP DP  RH WIND       PRES   REMARKS
LA GUARDIA NY  CLOUDY    81  71  71 SW8G17    29.90F
RALEIGH NC     MOSUNNY   81  71  71 SW5       29.98R
ATLANTA GA     MOSUNNY   83  73  72 NE6       30.01R
NEW ORLEANS LA PTSUNNY   82  76  81 N5        30.00S
OKLAHOMA CITY  MOSUNNY   79  75  87 SW3       30.14R
ALBUQUERQUE NM CLOUDY    65  60  84 N3        30.38R
SALT LAKE CITY PTCLDY    61  38  42 NE5       30.28R
LOS ANGELES CA PTCLDY    68  64  87 NW7       29.98R
BOISE ID       CLEAR     62  38  40 SE8       30.20R
SEATTLE WA     CLEAR     65  53  65 NE7       30.10S
$$

*** WEATHER ACROSS MANITOBA...SASKATCHEWAN AND ONTARIO ***
                ***ONTARIO***

CITY           SKY/WX    TMP DP  RH WIND       PRES   REMARKS
GERALDTON      DRIZZLE   59  55  88 NW12G22   29.63R
THUNDER BAY    MOSUNNY   66  55  68 NW13G31   29.78R
SIOUX LOOKOUT  MOSUNNY   61  54  77 W9G20     29.82
TORONTO        MOSUNNY   77  59  53 W10       29.85S
BIG TROUT LK   CLOUDY    55  54  94 NW26G33   29.50R
PICKLE LAKE    CLOUDY    57  52  82 W14G23    29.68R
DRYDEN         SUNNY     59  54  82 W12       29.87R
KENORA         PTSUNNY   61  57  88 W6        29.90
$$
                *** MANITOBA***

CITY           SKY/WX    TMP DP  RH WIND       PRES   REMARKS
BRANDON        MOSUNNY   61  55  82 NW13      30.00R
DAUPHIN        SUNNY     63  57  82 W14G20    29.94R
ISLAND LAKE    PTSUNNY   61  54  77 NE10      29.72S
PILOT MOUND      N/A     61  54  77 W7          N/A
THE PAS        MOSUNNY   61  57  88 W7        29.85R
THOMPSON       MOSUNNY   59  55  88 NW7       29.78R
WINNIPEG       PTSUNNY   63  59  88 W12       29.92R
LYNN LAKE        N/A    N/A N/A N/A MISG        N/A
CHURCHILL      CLOUDY    50  50 100 N16       29.65S FOG
GILLAM         PTSUNNY   57  54  88 N16G23    29.67R
$$
                ***SASKATCHEWAN***

CITY           SKY/WX    TMP DP  RH WIND       PRES   REMARKS
ESTEVAN        MOSUNNY   57  52  82 W10       30.12R
KINDERSLEY     PTSUNNY   54  50  87 SW5       30.19R
LLOYDMINSTER   MOSUNNY   54  46  76 W12       30.13R
PRINCE ALBERT  MOSUNNY   59  50  72 W9        30.01R
REGINA         MOSUNNY   59  54  82 W9        30.13R


USA.gov is the U.S. government's official web portal to all federal, state and local government web resources and services.